Weather History for Newcastle, WY

Change the Weather History Date:

Wednesday, September 11, 2013

  Actual Average (KCUT) Record (KCUT)
Temperature  
Mean Temperature 65 °F 56 °F  
Max Temperature 80 °F 70 °F 86 °F (1956)
Min Temperature 50 °F 43 °F 21 °F (1989)
Degree Days  
Heating Degree Days 0 9  
Month to date heating degree days 80  
Since 1 July heating degree days 234  
Cooling Degree Days 0 1  
Month to date cooling degree days 11  
Year to date cooling degree days 177  
Growing Degree Days 15 (Base 50)    
Moisture  
Dew Point 45 °F    
Average Humidity 55    
Maximum Humidity 82    
Minimum Humidity 23    
Precipitation  
Precipitation 0.00 in 0.06 in 0.87 in (2006)
Month to date precipitation 0.69  
Year to date precipitation 15.61  
Sea Level Pressure  
Sea Level Pressure 30.27 in    
Wind  
Wind Speed 3 mph (NNE)    
Max Wind Speed 12 mph    
Max Gust Speed -    
Visibility 10 miles    
Events      
T = Trace of Precipitation, MM = Missing Value Source: NWS Daily Summary

Daily Weather History Graph

Daily Weather History Graph

Search for Another Location

Airport:

Trip Planner

Search our weather history database for the weather conditions in past years. The results will help you decide how hot, cold, wet, or windy it might be!

Date:

Astronomy

Sep. 11, 2013 Rise Set
Actual Time 6:32 AM MDT 7:14 PM MDT
Civil Twilight 6:03 AM MDT 7:43 PM MDT
Nautical Twilight 5:28 AM MDT 8:17 PM MDT
Astronomical Twilight 4:52 AM MDT 8:53 PM MDT
Moon 1:16 PM MDT (9/11) 10:59 PM MDT (9/11)
Length of Visible Light 13h 40m
Length of Day
12h 42m
Waxing Crescent, 39% of the Moon is Illuminated
Sep 11
Waxing Crescent
Sep 12
First Quarter
Sep 19
Full
Sep 26
Last Quarter
Oct 4
New

Hourly Weather History & Observations

Time (MDT) Temp. Dew Point Humidity Pressure Visibility Wind Dir Wind Speed Gust Speed Precip Events Conditions
12:15 AM 55.4 °F 46.4 °F 72% 30.22 in 10.0 mi Calm Calm - N/A   Clear
12:35 AM 55.4 °F 46.4 °F 72% 30.21 in 10.0 mi North 8.1 mph - N/A   Clear
12:55 AM 55.4 °F 46.4 °F 72% 30.22 in 10.0 mi Calm Calm - N/A   Clear
1:15 AM 53.6 °F 46.4 °F 77% 30.23 in 10.0 mi NE 3.5 mph - N/A   Clear
1:35 AM 51.8 °F 44.6 °F 76% 30.24 in 10.0 mi Calm Calm - N/A   Clear
1:55 AM 51.8 °F 46.4 °F 82% 30.24 in 10.0 mi NNE 6.9 mph - N/A   Clear
2:15 AM 53.6 °F 46.4 °F 77% 30.24 in 10.0 mi NNE 4.6 mph - N/A   Clear
2:35 AM 53.6 °F 46.4 °F 77% 30.24 in 10.0 mi North 3.5 mph - N/A   Clear
2:55 AM 53.6 °F 46.4 °F 77% 30.24 in 10.0 mi NNE 4.6 mph - N/A   Clear
3:15 AM 53.6 °F 46.4 °F 77% 30.23 in 10.0 mi NNE 4.6 mph - N/A   Clear
3:35 AM 53.6 °F 46.4 °F 77% 30.24 in 10.0 mi Calm Calm - N/A   Clear
3:55 AM 50.0 °F 44.6 °F 82% 30.24 in 10.0 mi Calm Calm - N/A   Clear
4:15 AM 51.8 °F 46.4 °F 82% 30.24 in 10.0 mi Calm Calm - N/A   Clear
4:35 AM 53.6 °F 46.4 °F 77% 30.24 in 10.0 mi Calm Calm - N/A   Clear
4:55 AM 51.8 °F 46.4 °F 82% 30.24 in 10.0 mi North 3.5 mph - N/A   Clear
5:15 AM 53.6 °F 46.4 °F 77% 30.24 in 10.0 mi North 3.5 mph - N/A   Clear
5:35 AM 53.6 °F 46.4 °F 77% 30.24 in 10.0 mi NE 3.5 mph - N/A   Clear
5:55 AM 53.6 °F 46.4 °F 77% 30.25 in 10.0 mi NNE 4.6 mph - N/A   Clear
6:15 AM 53.6 °F 46.4 °F 77% 30.25 in 10.0 mi Calm Calm - N/A   Clear
6:35 AM 51.8 °F 44.6 °F 76% 30.26 in 10.0 mi Calm Calm - N/A   Clear
6:55 AM 53.6 °F 46.4 °F 77% 30.26 in 10.0 mi NNE 4.6 mph - N/A   Clear
7:15 AM 51.8 °F 44.6 °F 76% 30.27 in 10.0 mi Calm Calm - N/A   Clear
7:35 AM 51.8 °F 46.4 °F 82% 30.27 in 10.0 mi Calm Calm - N/A   Clear
7:55 AM 55.4 °F 46.4 °F 72% 30.27 in 10.0 mi Calm Calm - N/A   Clear
8:15 AM 57.2 °F 48.2 °F 72% 30.28 in 10.0 mi North - - N/A   Clear
8:35 AM 59.0 °F 48.2 °F 67% 30.28 in 10.0 mi North - - N/A   Clear
8:55 AM 59.0 °F 48.2 °F 67% 30.28 in 10.0 mi North - - N/A   Clear
9:15 AM 62.6 °F 50.0 °F 63% 30.28 in 10.0 mi Calm Calm - N/A   Clear
9:35 AM 64.4 °F 48.2 °F 56% 30.29 in 10.0 mi Calm Calm - N/A   Clear
9:55 AM 64.4 °F 48.2 °F 56% 30.29 in 10.0 mi Calm Calm - N/A   Clear
10:15 AM 66.2 °F 46.4 °F 49% 30.29 in 10.0 mi Calm Calm - N/A   Scattered Clouds
10:35 AM 68.0 °F 46.4 °F 46% 30.29 in 10.0 mi Calm Calm - N/A   Scattered Clouds
10:55 AM 69.8 °F 44.6 °F 40% 30.29 in 10.0 mi WNW 3.5 mph - N/A   Clear
11:15 AM 71.6 °F 44.6 °F 38% 30.29 in 10.0 mi Calm Calm - N/A   Clear
11:35 AM 71.6 °F 44.6 °F 38% 30.29 in 10.0 mi SW 3.5 mph - N/A   Clear
11:55 AM 71.6 °F 42.8 °F 35% 30.29 in 10.0 mi WSW 4.6 mph - N/A   Clear
12:15 PM 73.4 °F 42.8 °F 33% 30.28 in 10.0 mi West 4.6 mph - N/A   Clear
12:35 PM 73.4 °F 42.8 °F 33% 30.28 in 10.0 mi Calm Calm - N/A   Clear
12:55 PM 77.0 °F 42.8 °F 29% 30.28 in 10.0 mi NW 4.6 mph - N/A   Clear
1:15 PM 77.0 °F 42.8 °F 29% 30.27 in 10.0 mi Calm Calm - N/A   Clear
1:35 PM 78.8 °F 42.8 °F 28% 30.26 in 10.0 mi NNW 4.6 mph - N/A   Clear
1:55 PM 77.0 °F 41.0 °F 28% 30.26 in 10.0 mi Calm Calm - N/A   Clear
2:15 PM 78.8 °F 41.0 °F 26% 30.25 in 10.0 mi South 3.5 mph - N/A   Clear
2:35 PM 80.6 °F 41.0 °F 24% 30.25 in 10.0 mi West 8.1 mph - N/A   Clear
2:55 PM 78.8 °F 39.2 °F 24% 30.25 in 10.0 mi SE 3.5 mph - N/A   Clear
3:15 PM 80.6 °F 39.2 °F 23% 30.25 in 10.0 mi South 3.5 mph - N/A   Clear
3:35 PM 78.8 °F 37.4 °F 23% 30.24 in 10.0 mi NW 3.5 mph - N/A   Clear
3:55 PM 78.8 °F 37.4 °F 23% 30.24 in 10.0 mi Calm Calm - N/A   Clear
4:15 PM 78.8 °F 41.0 °F 26% 30.24 in 10.0 mi SSW 8.1 mph - N/A   Clear
4:35 PM 78.8 °F 42.8 °F 28% 30.24 in 10.0 mi SSW 8.1 mph - N/A   Clear
4:55 PM 77.0 °F 42.8 °F 29% 30.24 in 10.0 mi North - - N/A   Clear
5:15 PM 75.2 °F 42.8 °F 31% 30.25 in 10.0 mi South 11.5 mph - N/A   Clear
5:35 PM 73.4 °F 42.8 °F 33% 30.25 in 10.0 mi North - - N/A   Clear
5:55 PM 73.4 °F 42.8 °F 33% 30.26 in 10.0 mi North - - N/A   Clear
6:15 PM 73.4 °F 42.8 °F 33% 30.26 in 10.0 mi North - - N/A   Clear
6:35 PM 71.6 °F 42.8 °F 35% 30.26 in 10.0 mi North - - N/A   Clear
6:55 PM 69.8 °F 44.6 °F 40% 30.26 in 10.0 mi South 3.5 mph - N/A   Clear
7:15 PM 68.0 °F 46.4 °F 46% 30.27 in 10.0 mi SE 3.5 mph - N/A   Clear
7:35 PM 66.2 °F 48.2 °F 52% 30.28 in 10.0 mi SE 4.6 mph - N/A   Scattered Clouds
7:55 PM 66.2 °F 48.2 °F 52% 30.28 in 10.0 mi SE 5.8 mph - N/A   Scattered Clouds
8:15 PM 64.4 °F 48.2 °F 56% 30.29 in 10.0 mi ESE 3.5 mph - N/A   Clear
8:35 PM 66.2 °F 46.4 °F 49% 30.29 in 10.0 mi North - - N/A   Clear
8:55 PM 64.4 °F 46.4 °F 52% 30.29 in 10.0 mi North - - N/A   Clear
9:15 PM 62.6 °F 48.2 °F 59% 30.30 in 10.0 mi North - - N/A   Clear
9:35 PM 62.6 °F 46.4 °F 55% 30.30 in 10.0 mi Calm Calm - N/A   Clear
9:55 PM 62.6 °F 46.4 °F 55% 30.30 in 10.0 mi Calm Calm - N/A   Clear
10:15 PM 60.8 °F 48.2 °F 63% 30.30 in 10.0 mi North - - N/A   Clear
10:35 PM 59.0 °F 46.4 °F 63% 30.32 in 10.0 mi North - - N/A   Clear
10:55 PM 60.8 °F 48.2 °F 63% 30.32 in 10.0 mi North - - N/A   Clear
11:15 PM 60.8 °F 48.2 °F 63% 30.32 in 10.0 mi North - - N/A   Clear
11:35 PM 57.2 °F 46.4 °F 67% 30.32 in 10.0 mi North - - N/A   Clear
11:55 PM 59.0 °F 48.2 °F 67% 30.32 in 10.0 mi North - - N/A   Clear